Regional Weather Roundup
Issued by NWS

Home | Current Version | Previous Version | Graphics & Text | Print | Product List | Glossary On
Versions: 1 2 3 4 5 6 7 8 9 10 11 12 13 14 15 16 17 18 19 20 21 22 23 24 25 26 27 28 29 30 31 32 33 34 35 36 37 38 39 40 41 42 43 44 45 46 47 48 49 50
000
ASUS44 KMEG 080400
RWRTN
TENNESSEE HOURLY STATE WEATHER ROUNDUP
NATIONAL WEATHER SERVICE MEMPHIS TN
1000 PM CST SUN FEB 07 2016

TNZ002-004-019-021-049-052-054-088>092-080500-
WEST TENNESSEE

CITY           SKY/WX    TMP DP  RH WIND       PRES   REMARKS
MEMPHIS INTL   PTCLDY    50  31  48 W6        29.98S
NWS MEMPHIS      N/A     50 N/A N/A MISG        N/A
JACKSON        CLEAR     47  31  53 SW10      29.94F
DYERSBURG      CLOUDY    46  30  53 W12       29.95F
PARIS          MOCLDY    45  30  57 SW14      29.89F
$$

TNZ008-025-027-028-033-062-065-066-080500-
NORTH MIDDLE TENNESSEE

CITY           SKY/WX    TMP DP  RH WIND       PRES   REMARKS
NASHVILLE      PTCLDY    46  20  35 SW8       29.92F
CLARKSVILLE    CLOUDY    49  27  42 SW10      29.88F
CROSSVILLE     PTCLDY    41  20  43 SW5       29.92F
$$

TNZ061-075-076-078-094-096-097-080500-
SOUTH MIDDLE TENNESSEE

CITY           SKY/WX    TMP DP  RH WIND       PRES   REMARKS
WINCHESTER     CLEAR     32  28  86 CALM      29.96F
COLUMBIA       CLEAR     43  28  56 SW8       29.92F
SHELBYVILLE    CLEAR     43  25  49 SW7       29.96S
$$

TNZ017-018-042-046-047-080500-
NORTHEAST TENNESSEE

CITY           SKY/WX    TMP DP  RH WIND       PRES   REMARKS
TRI CITIES     PTCLDY    31  24  75 CALM      29.92S
$$

TNZ012-013-036-069-073-074-080500-
CENTRAL EAST TENNESSEE

CITY           SKY/WX    TMP DP  RH WIND       PRES   REMARKS
KNOXVILLE      CLEAR     40  23  50 SW6       29.94S
OAK RIDGE      CLEAR     35  27  72 CALM      29.95S
$$

TNZ083-085-099-080500-
SOUTHEAST TENNESSEE

CITY           SKY/WX    TMP DP  RH WIND       PRES   REMARKS
CHATTANOOGA    PTCLDY    42  28  57 CALM      29.96F
$$

SKY/WX REPORTED AS FAIR MEANS FEW OR NO CLOUDS BELOW
12 THOUSAND FEET.




USA.gov is the U.S. government's official web portal to all federal, state and local government web resources and services.